Santa Barbara, CA

4:05 AM PST on December 13, 2017 (GMT -0800)
Santa Barbara Municipal

Weather History for KSBA - March, 2013

Change the Weather History Date:

Friday, March 8, 2013

  Actual Average Record
Temperature  
Mean Temperature 52 °F 55 °F  
Max Temperature 63 °F 65 °F 84 °F (2004)
Min Temperature 41 °F 46 °F 33 °F (1961)
Degree Days  
Heating Degree Days 13 10  
Month to date heating degree days 65 80  
Since 1 July heating degree days 1559 1681  
Cooling Degree Days 0 0  
Month to date cooling degree days 0 0  
Year to date cooling degree days 0 0  
Growing Degree Days 2 (Base 50)    
Moisture  
Dew Point 42 °F    
Average Humidity 72    
Maximum Humidity 96    
Minimum Humidity 48    
Precipitation  
Precipitation 0.06 in 0.12 in 1.95 in (1986)
Month to date precipitation 0.69 0.98  
Year to date precipitation 2.91 8.44  
Since 1 July precipitation 8.98  
Sea Level Pressure  
Sea Level Pressure 29.89 in    
Wind  
Wind Speed 8 mph (WNW)    
Max Wind Speed 18 mph    
Max Gust Speed 47 mph    
Visibility 9 miles    
Events Rain    
T = Trace of Precipitation, MM = Missing Value Source: NWS Daily Summary

Daily Weather History Graph

Daily Weather History Graph

Search for Another Location

Airport or City:

Trip Planner

Search our weather history database for the weather conditions in past years. The results will help you decide how hot, cold, wet, or windy it might be!

Date:

Astronomy

Mar. 08, 2013 Rise Set
Actual Time 6:18 AM PST 6:01 PM PST
Civil Twilight 5:53 AM PST 6:26 PM PST
Nautical Twilight 5:24 AM PST 6:55 PM PST
Astronomical Twilight 4:55 AM PST 7:25 PM PST
Moon 3:59 AM PST (3/8) 3:08 PM PST (3/8)
Length of Visible Light 12h 33m
Length of Day
11h 42m
Waning Crescent, 11% of the Moon is Illuminated
Mar 8
Waning Crescent
Mar 11
New
Mar 19
First Quarter
Mar 27
Full
Apr 2
Last Quarter

Hourly Weather History & Observations

Time (PST) Temp. Windchill Dew Point Humidity Pressure Visibility Wind Dir Wind Speed Gust Speed Precip Events Conditions
12:07 AM 48.2 °F - 44.6 °F 87% 29.85 in 3.0 mi North 4.6 mph - 0.03 in Rain Rain
12:18 AM 46.4 °F 45.2 °F 44.6 °F 93% 29.85 in 6.0 mi Variable 3.5 mph 47.2 mph 0.03 in Rain Light Rain
12:53 AM 46.9 °F - 43.0 °F 86% 29.83 in 7.0 mi NE 9.2 mph - 0.06 in Rain Light Rain
1:53 AM 48.0 °F - 44.1 °F 86% 29.81 in 10.0 mi NW 5.8 mph - 0.00 in   Overcast
2:53 AM 46.9 °F - 44.1 °F 90% 29.81 in 8.0 mi Calm Calm - 0.02 in Rain Light Rain
3:53 AM 46.0 °F - 44.1 °F 93% 29.80 in 10.0 mi Calm Calm - 0.00 in   Partly Cloudy
4:53 AM 44.1 °F - 42.1 °F 93% 29.80 in 10.0 mi Calm Calm - N/A   Clear
5:41 AM 42.8 °F - 41.0 °F 93% 29.81 in 1.8 mi Calm Calm - N/A   Clear
5:49 AM 42.8 °F 41.1 °F 39.2 °F 87% 29.81 in 5.0 mi NW 3.5 mph - N/A   Clear
5:53 AM 42.1 °F 40.2 °F 39.9 °F 92% 29.81 in 5.0 mi West 3.5 mph - N/A   Partly Cloudy
6:35 AM 42.8 °F 41.1 °F 39.2 °F 87% 29.82 in 9.0 mi NNE 3.5 mph - N/A   Scattered Clouds
6:53 AM 43.0 °F - 41.0 °F 93% 29.83 in 10.0 mi Calm Calm - N/A   Scattered Clouds
7:53 AM 46.0 °F - 43.0 °F 89% 29.85 in 10.0 mi Calm Calm - N/A   Scattered Clouds
8:53 AM 52.0 °F - 44.1 °F 74% 29.88 in 10.0 mi SW 5.8 mph - N/A   Scattered Clouds
9:53 AM 55.0 °F - 42.1 °F 62% 29.88 in 10.0 mi NW 5.8 mph - N/A   Scattered Clouds
10:53 AM 55.0 °F - 41.0 °F 59% 29.90 in 10.0 mi Calm Calm - N/A   Mostly Cloudy
11:53 AM 55.9 °F - 43.0 °F 62% 29.90 in 10.0 mi West 12.7 mph - N/A   Mostly Cloudy
12:53 PM 61.0 °F - 45.0 °F 56% 29.88 in 10.0 mi West 15.0 mph - 0.00 in   Mostly Cloudy
1:53 PM 63.0 °F - 42.1 °F 46% 29.87 in 10.0 mi West 13.8 mph 23.0 mph N/A   Mostly Cloudy
2:53 PM 61.0 °F - 41.0 °F 48% 29.88 in 10.0 mi NNW 11.5 mph 19.6 mph N/A   Clear
3:53 PM 61.0 °F - 41.0 °F 48% 29.87 in 10.0 mi NW 18.4 mph - N/A   Clear
4:12 PM 60.8 °F - 42.8 °F 52% 29.87 in 10.0 mi NW 18.4 mph - N/A   Clear
4:53 PM 59.0 °F - 42.1 °F 53% 29.89 in 10.0 mi NW 18.4 mph 25.3 mph N/A   Clear
5:53 PM 55.0 °F - 42.1 °F 62% 29.94 in 10.0 mi WNW 11.5 mph 19.6 mph N/A   Scattered Clouds
6:53 PM 54.0 °F - 43.0 °F 66% 29.98 in 10.0 mi West 11.5 mph - N/A   Scattered Clouds
7:53 PM 53.1 °F - 41.0 °F 64% 30.02 in 10.0 mi West 10.4 mph 21.9 mph N/A   Overcast
8:53 PM 53.1 °F - 41.0 °F 64% 30.04 in 10.0 mi WNW 11.5 mph - N/A   Overcast
9:53 PM 51.1 °F - 41.0 °F 68% 30.06 in 10.0 mi West 6.9 mph - N/A   Overcast
10:53 PM 51.1 °F - 39.9 °F 66% 30.06 in 10.0 mi Variable 5.8 mph - N/A   Partly Cloudy
11:53 PM 51.1 °F - 39.0 °F 63% 30.06 in 10.0 mi WNW 10.4 mph - N/A   Partly Cloudy